Time,TemperatureF,DewpointF,PressureIn,WindDirection,WindDirectionDegrees,WindSpeedMPH,WindSpeedGustMPH,Humidity,HourlyPrecipIn,Conditions,Clouds,dailyrainin,SolarRadiationWatts/m^2,SoftwareType,DateUTC
2013-09-22 00:01:00,62.1,50.2,29.64,SSE,162,8.0,10.0,65,0.00,,,0.00,0,Wunderground v.1.15,2013-09-22 05:01:00,
2013-09-22 00:06:00,62.1,50.2,29.64,SSE,159,6.0,10.0,65,0.00,,,0.00,0,Wunderground v.1.15,2013-09-22 05:06:00,
2013-09-22 00:11:00,62.0,50.5,29.64,SSE,155,6.0,9.0,66,0.00,,,0.00,0,Wunderground v.1.15,2013-09-22 05:11:00,
2013-09-22 00:16:00,61.1,50.5,29.63,SE,143,7.0,9.0,68,0.00,,,0.00,0,Wunderground v.1.15,2013-09-22 05:16:00,
2013-09-22 00:21:00,60.1,50.3,29.63,SE,143,6.0,8.0,70,0.00,,,0.00,0,Wunderground v.1.15,2013-09-22 05:21:00,
2013-09-22 00:26:00,59.5,50.1,29.63,SE,144,7.0,8.0,71,0.00,,,0.00,0,Wunderground v.1.15,2013-09-22 05:26:00,
2013-09-22 00:31:00,59.1,50.1,29.63,SE,144,7.0,7.0,72,0.00,,,0.00,0,Wunderground v.1.15,2013-09-22 05:31:00,
2013-09-22 00:36:00,58.5,49.9,29.63,SSE,148,5.0,10.0,73,0.00,,,0.00,0,Wunderground v.1.15,2013-09-22 05:36:00,
2013-09-22 00:41:00,57.9,50.0,29.63,SSE,148,6.0,7.0,75,0.00,,,0.00,0,Wunderground v.1.15,2013-09-22 05:41:00,
2013-09-22 00:46:00,57.9,50.0,29.63,SE,142,5.0,8.0,75,0.00,,,0.00,0,Wunderground v.1.15,2013-09-22 05:46:00,
2013-09-22 00:51:00,57.8,49.9,29.63,SE,140,5.0,7.0,75,0.00,,,0.00,0,Wunderground v.1.15,2013-09-22 05:51:00,
2013-09-22 00:56:00,57.8,49.9,29.63,SE,138,6.0,9.0,75,0.00,,,0.00,0,Wunderground v.1.15,2013-09-22 05:56:00,
2013-09-22 01:01:00,57.8,49.9,29.63,SE,138,7.0,8.0,75,0.00,,,0.00,0,Wunderground v.1.15,2013-09-22 06:01:00,
2013-09-22 01:06:00,57.8,49.9,29.63,SE,138,8.0,9.0,75,0.00,,,0.00,0,Wunderground v.1.15,2013-09-22 06:06:00,
2013-09-22 01:11:00,57.9,50.0,29.63,SE,140,7.0,9.0,75,0.00,,,0.00,0,Wunderground v.1.15,2013-09-22 06:11:00,
2013-09-22 01:16:00,57.8,49.9,29.63,SE,141,6.0,9.0,75,0.00,,,0.00,0,Wunderground v.1.15,2013-09-22 06:16:00,
2013-09-22 01:21:00,57.7,49.8,29.63,SE,140,6.0,7.0,75,0.00,,,0.00,0,Wunderground v.1.15,2013-09-22 06:21:00,
2013-09-22 01:26:00,57.5,49.6,29.63,SE,140,5.0,7.0,75,0.00,,,0.00,0,Wunderground v.1.15,2013-09-22 06:26:00,
2013-09-22 01:31:00,57.4,49.9,29.63,SE,140,5.0,7.0,76,0.00,,,0.00,0,Wunderground v.1.15,2013-09-22 06:31:00,
2013-09-22 01:36:00,57.3,49.8,29.63,SE,141,5.0,7.0,76,0.00,,,0.00,0,Wunderground v.1.15,2013-09-22 06:36:00,
2013-09-22 01:41:00,57.2,49.7,29.63,SE,141,4.0,6.0,76,0.00,,,0.00,0,Wunderground v.1.15,2013-09-22 06:41:00,
2013-09-22 01:46:00,57.0,49.5,29.63,SE,141,4.0,7.0,76,0.00,,,0.00,0,Wunderground v.1.15,2013-09-22 06:46:00,
2013-09-22 01:51:00,56.8,49.7,29.63,SE,142,7.0,7.0,77,0.00,,,0.00,0,Wunderground v.1.15,2013-09-22 06:51:00,
2013-09-22 01:56:00,56.6,49.5,29.63,SE,143,6.0,7.0,77,0.00,,,0.00,0,Wunderground v.1.15,2013-09-22 06:56:00,
2013-09-22 02:01:00,56.3,49.5,29.63,SE,143,6.0,6.0,78,0.00,,,0.00,0,Wunderground v.1.15,2013-09-22 07:01:00,
2013-09-22 02:06:00,56.1,49.3,29.62,SE,143,7.0,8.0,78,0.00,,,0.00,0,Wunderground v.1.15,2013-09-22 07:06:00,
2013-09-22 02:11:00,55.9,49.5,29.62,SE,144,6.0,8.0,79,0.00,,,0.00,0,Wunderground v.1.15,2013-09-22 07:11:00,
2013-09-22 02:16:00,55.9,49.5,29.62,SE,145,8.0,8.0,79,0.00,,,0.00,0,Wunderground v.1.15,2013-09-22 07:16:00,
2013-09-22 02:21:00,56.0,49.6,29.62,SE,146,6.0,7.0,79,0.00,,,0.00,0,Wunderground v.1.15,2013-09-22 07:21:00,
2013-09-22 02:26:00,56.4,49.6,29.62,SSE,151,6.0,9.0,78,0.00,,,0.00,0,Wunderground v.1.15,2013-09-22 07:26:00,
2013-09-22 02:31:00,57.6,49.7,29.62,SSE,163,6.0,9.0,75,0.00,,,0.00,0,Wunderground v.1.15,2013-09-22 07:31:00,
2013-09-22 02:36:00,58.3,49.7,29.61,SSE,155,5.0,13.0,73,0.00,,,0.00,0,Wunderground v.1.15,2013-09-22 07:36:00,
2013-09-22 02:41:00,58.7,49.7,29.61,South,171,6.0,11.0,72,0.00,,,0.00,0,Wunderground v.1.15,2013-09-22 07:41:00,
2013-09-22 02:46:00,59.0,49.6,29.61,SSE,161,6.0,11.0,71,0.00,,,0.00,0,Wunderground v.1.15,2013-09-22 07:46:00,
2013-09-22 02:51:00,59.2,49.8,29.61,SSE,167,7.0,8.0,71,0.00,,,0.00,0,Wunderground v.1.15,2013-09-22 07:51:00,
2013-09-22 02:56:00,59.4,49.6,29.61,SSE,164,8.0,10.0,70,0.00,,,0.00,0,Wunderground v.1.15,2013-09-22 07:56:00,
2013-09-22 03:01:00,59.3,49.5,29.61,SSE,165,8.0,9.0,70,0.00,,,0.00,0,Wunderground v.1.15,2013-09-22 08:01:00,
2013-09-22 03:06:00,59.2,49.4,29.61,SSE,165,6.0,10.0,70,0.00,,,0.00,0,Wunderground v.1.15,2013-09-22 08:06:00,
2013-09-22 03:11:00,59.1,49.3,29.61,SSE,163,7.0,9.0,70,0.00,,,0.00,0,Wunderground v.1.15,2013-09-22 08:11:00,
2013-09-22 03:16:00,58.9,49.5,29.61,SSE,164,6.0,10.0,71,0.00,,,0.00,0,Wunderground v.1.15,2013-09-22 08:16:00,
2013-09-22 03:21:00,58.6,49.6,29.61,SSE,165,5.0,7.0,72,0.00,,,0.00,0,Wunderground v.1.15,2013-09-22 08:21:00,
2013-09-22 03:26:00,58.2,49.2,29.61,SSE,162,8.0,9.0,72,0.00,,,0.00,0,Wunderground v.1.15,2013-09-22 08:26:00,
2013-09-22 03:31:00,58.1,49.5,29.60,SSE,167,8.0,9.0,73,0.00,,,0.00,0,Wunderground v.1.15,2013-09-22 08:31:00,
2013-09-22 03:36:00,58.1,49.5,29.60,SSE,165,9.0,10.0,73,0.00,,,0.00,0,Wunderground v.1.15,2013-09-22 08:36:00,
2013-09-22 03:41:00,58.2,49.2,29.60,SSE,164,7.0,10.0,72,0.00,,,0.00,0,Wunderground v.1.15,2013-09-22 08:41:00,
2013-09-22 03:46:00,58.2,49.2,29.60,SSE,159,7.0,11.0,72,0.00,,,0.00,0,Wunderground v.1.15,2013-09-22 08:46:00,
2013-09-22 03:51:00,58.4,49.4,29.60,South,180,11.0,12.0,72,0.00,,,0.00,0,Wunderground v.1.15,2013-09-22 08:51:00,
2013-09-22 03:56:00,58.7,49.3,29.60,South,171,8.0,12.0,71,0.00,,,0.00,0,Wunderground v.1.15,2013-09-22 08:56:00,
2013-09-22 04:01:00,59.0,49.2,29.60,South,172,8.0,11.0,70,0.00,,,0.00,0,Wunderground v.1.15,2013-09-22 09:01:00,
2013-09-22 04:06:00,59.1,49.3,29.60,South,170,9.0,13.0,70,0.00,,,0.00,0,Wunderground v.1.15,2013-09-22 09:06:00,
2013-09-22 04:11:00,58.9,49.5,29.60,SSE,165,8.0,11.0,71,0.00,,,0.00,0,Wunderground v.1.15,2013-09-22 09:11:00,
2013-09-22 04:16:00,58.6,49.2,29.60,SSE,163,10.0,13.0,71,0.00,,,0.00,0,Wunderground v.1.15,2013-09-22 09:16:00,
2013-09-22 04:21:00,58.4,49.4,29.60,South,169,8.0,12.0,72,0.00,,,0.00,0,Wunderground v.1.15,2013-09-22 09:21:00,
2013-09-22 04:26:00,58.6,49.2,29.59,SSE,165,10.0,13.0,71,0.00,,,0.00,0,Wunderground v.1.15,2013-09-22 09:26:00,
2013-09-22 04:31:00,58.4,49.4,29.59,SSE,167,9.0,10.0,72,0.00,,,0.00,0,Wunderground v.1.15,2013-09-22 09:31:00,
2013-09-22 04:36:00,58.3,49.3,29.59,SSE,165,11.0,15.0,72,0.00,,,0.00,0,Wunderground v.1.15,2013-09-22 09:36:00,
2013-09-22 04:41:00,58.4,49.4,29.59,South,175,10.0,12.0,72,0.00,,,0.00,0,Wunderground v.1.15,2013-09-22 09:41:00,
2013-09-22 04:46:00,58.2,49.2,29.59,South,181,10.0,14.0,72,0.00,,,0.00,0,Wunderground v.1.15,2013-09-22 09:46:00,
2013-09-22 04:51:00,58.0,49.0,29.59,SSE,167,12.0,13.0,72,0.00,,,0.00,0,Wunderground v.1.15,2013-09-22 09:51:00,
2013-09-22 04:56:00,58.0,49.0,29.59,South,176,11.0,15.0,72,0.00,,,0.00,0,Wunderground v.1.15,2013-09-22 09:56:00,
2013-09-22 05:01:00,57.9,49.3,29.59,SSE,166,13.0,14.0,73,0.00,,,0.00,0,Wunderground v.1.15,2013-09-22 10:01:00,
2013-09-22 05:05:00,57.8,49.2,29.59,South,175,13.0,17.0,73,0.00,,,0.00,0,Wunderground v.1.15,2013-09-22 10:05:00,
2013-09-22 05:10:00,57.8,49.2,29.59,South,178,10.0,12.0,73,0.00,,,0.00,0,Wunderground v.1.15,2013-09-22 10:10:00,
2013-09-22 05:15:00,57.8,49.2,29.59,South,180,9.0,15.0,73,0.00,,,0.00,0,Wunderground v.1.15,2013-09-22 10:15:00,
2013-09-22 05:20:00,57.8,49.2,29.59,South,179,9.0,11.0,73,0.00,,,0.00,0,Wunderground v.1.15,2013-09-22 10:20:00,
2013-09-22 05:25:00,57.6,49.0,29.59,South,169,9.0,14.0,73,0.00,,,0.00,0,Wunderground v.1.15,2013-09-22 10:25:00,
2013-09-22 05:30:00,57.7,49.1,29.59,South,169,14.0,14.0,73,0.00,,,0.00,0,Wunderground v.1.15,2013-09-22 10:30:00,
2013-09-22 05:35:00,57.7,49.1,29.59,South,174,12.0,15.0,73,0.00,,,0.00,0,Wunderground v.1.15,2013-09-22 10:35:00,
2013-09-22 05:40:00,57.6,49.0,29.60,South,182,12.0,12.0,73,0.00,,,0.00,0,Wunderground v.1.15,2013-09-22 10:40:00,
2013-09-22 05:45:00,57.5,48.9,29.59,South,178,7.0,15.0,73,0.00,,,0.00,0,Wunderground v.1.15,2013-09-22 10:45:00,
2013-09-22 05:50:00,57.5,48.9,29.59,South,169,9.0,10.0,73,0.00,,,0.00,0,Wunderground v.1.15,2013-09-22 10:50:00,
2013-09-22 06:01:00,57.1,48.9,29.59,SSW,196,7.0,9.0,74,0.00,,,0.00,0,Wunderground v.1.15,2013-09-22 11:01:00,
2013-09-22 06:06:00,56.9,48.7,29.59,South,184,7.0,14.0,74,0.00,,,0.00,0,Wunderground v.1.15,2013-09-22 11:06:00,
2013-09-22 06:11:00,56.7,48.9,29.59,South,176,9.0,9.0,75,0.00,,,0.00,0,Wunderground v.1.15,2013-09-22 11:11:00,
2013-09-22 06:16:00,56.9,49.1,29.59,SSW,194,7.0,12.0,75,0.00,,,0.00,0,Wunderground v.1.15,2013-09-22 11:16:00,
2013-09-22 06:20:00,56.8,49.0,29.59,SSW,192,9.0,9.0,75,0.00,,,0.00,0,Wunderground v.1.15,2013-09-22 11:20:00,
2013-09-22 06:25:00,57.0,49.2,29.59,SSW,192,6.0,12.0,75,0.00,,,0.00,0,Wunderground v.1.15,2013-09-22 11:25:00,
2013-09-22 06:30:00,57.3,49.1,29.59,South,189,8.0,12.0,74,0.00,,,0.00,0,Wunderground v.1.15,2013-09-22 11:30:00,
2013-09-22 06:35:00,57.4,49.2,29.59,SSW,200,10.0,14.0,74,0.00,,,0.00,0,Wunderground v.1.15,2013-09-22 11:35:00,
2013-09-22 06:40:00,57.4,49.2,29.59,South,184,8.0,11.0,74,0.00,,,0.00,0,Wunderground v.1.15,2013-09-22 11:40:00,
2013-09-22 06:45:00,57.4,49.2,29.60,South,181,8.0,12.0,74,0.00,,,0.00,0,Wunderground v.1.15,2013-09-22 11:45:00,
2013-09-22 06:50:00,57.4,49.2,29.60,South,190,10.0,10.0,74,0.00,,,0.00,0,Wunderground v.1.15,2013-09-22 11:50:00,
2013-09-22 06:55:00,57.4,49.2,29.60,South,180,9.0,15.0,74,0.00,,,0.00,0,Wunderground v.1.15,2013-09-22 11:55:00,
2013-09-22 07:00:00,57.5,49.3,29.60,South,186,11.0,11.0,74,0.00,,,0.00,0,Wunderground v.1.15,2013-09-22 12:00:00,
2013-09-22 07:05:00,57.7,49.5,29.60,South,182,8.0,19.0,74,0.00,,,0.00,0,Wunderground v.1.15,2013-09-22 12:05:00,
2013-09-22 07:10:00,57.7,49.5,29.60,South,189,12.0,16.0,74,0.00,,,0.00,0,Wunderground v.1.15,2013-09-22 12:10:00,
2013-09-22 07:15:00,57.5,49.3,29.60,SSW,198,11.0,16.0,74,0.00,,,0.00,0,Wunderground v.1.15,2013-09-22 12:15:00,
2013-09-22 07:20:00,57.3,49.4,29.60,South,179,12.0,12.0,75,0.00,,,0.00,0,Wunderground v.1.15,2013-09-22 12:20:00,
2013-09-22 07:25:00,57.2,49.3,29.60,South,178,9.0,16.0,75,0.00,,,0.00,5,Wunderground v.1.15,2013-09-22 12:25:00,
2013-09-22 07:30:00,57.1,49.2,29.60,South,187,9.0,11.0,75,0.00,,,0.00,9,Wunderground v.1.15,2013-09-22 12:30:00,
2013-09-22 07:35:00,57.2,49.3,29.60,SSE,161,11.0,15.0,75,0.00,,,0.00,12,Wunderground v.1.15,2013-09-22 12:35:00,
2013-09-22 07:40:00,57.2,49.3,29.60,South,176,10.0,11.0,75,0.00,,,0.00,16,Wunderground v.1.15,2013-09-22 12:40:00,
2013-09-22 07:45:00,57.4,49.5,29.60,South,182,11.0,16.0,75,0.00,,,0.00,21,Wunderground v.1.15,2013-09-22 12:45:00,
2013-09-22 07:50:00,57.5,49.6,29.60,South,188,14.0,14.0,75,0.00,,,0.00,26,Wunderground v.1.15,2013-09-22 12:50:00,
2013-09-22 07:55:00,57.7,49.8,29.60,South,173,10.0,15.0,75,0.00,,,0.00,37,Wunderground v.1.15,2013-09-22 12:55:00,
2013-09-22 08:00:00,58.0,50.1,29.60,South,188,10.0,13.0,75,0.00,,,0.00,47,Wunderground v.1.15,2013-09-22 13:00:00,
2013-09-22 08:05:00,58.2,50.0,29.60,SSW,204,7.0,18.0,74,0.00,,,0.00,62,Wunderground v.1.15,2013-09-22 13:05:00,
2013-09-22 08:10:00,58.4,50.5,29.60,South,190,10.0,11.0,75,0.00,,,0.00,76,Wunderground v.1.15,2013-09-22 13:10:00,
2013-09-22 08:15:00,58.6,50.7,29.60,South,182,10.0,16.0,75,0.00,,,0.00,91,Wunderground v.1.15,2013-09-22 13:15:00,
2013-09-22 08:20:00,58.9,50.6,29.60,SSW,198,7.0,12.0,74,0.00,,,0.00,104,Wunderground v.1.15,2013-09-22 13:20:00,
2013-09-22 08:25:00,59.2,50.9,29.60,SSW,198,8.0,18.0,74,0.00,,,0.00,125,Wunderground v.1.15,2013-09-22 13:25:00,
2013-09-22 08:30:00,59.5,50.8,29.60,SSW,210,11.0,13.0,73,0.00,,,0.00,144,Wunderground v.1.15,2013-09-22 13:30:00,
2013-09-22 08:35:00,59.9,51.2,29.60,SSW,207,13.0,17.0,73,0.00,,,0.00,163,Wunderground v.1.15,2013-09-22 13:35:00,
2013-09-22 08:40:00,60.3,51.2,29.60,SSW,203,11.0,14.0,72,0.00,,,0.00,185,Wunderground v.1.15,2013-09-22 13:40:00,
2013-09-22 08:45:00,60.7,51.6,29.60,SW,227,14.0,16.0,72,0.00,,,0.00,204,Wunderground v.1.15,2013-09-22 13:45:00,
2013-09-22 08:50:00,61.0,51.5,29.60,SSW,200,9.0,16.0,71,0.00,,,0.00,223,Wunderground v.1.15,2013-09-22 13:50:00,
2013-09-22 08:55:00,61.4,51.5,29.60,SSW,205,13.0,23.0,70,0.00,,,0.00,239,Wunderground v.1.15,2013-09-22 13:55:00,
2013-09-22 09:00:00,61.9,51.6,29.60,SSW,200,16.0,25.0,69,0.00,,,0.00,255,Wunderground v.1.15,2013-09-22 14:00:00,
2013-09-22 09:05:00,62.3,51.6,29.60,SSW,203,15.0,25.0,68,0.00,,,0.00,271,Wunderground v.1.15,2013-09-22 14:05:00,
2013-09-22 09:10:00,62.8,51.7,29.60,SW,219,14.0,15.0,67,0.00,,,0.00,287,Wunderground v.1.15,2013-09-22 14:10:00,
2013-09-22 09:15:00,63.2,51.6,29.60,South,188,17.0,19.0,66,0.00,,,0.00,302,Wunderground v.1.15,2013-09-22 14:15:00,
2013-09-22 09:20:00,63.6,52.4,29.60,SSW,203,10.0,15.0,67,0.00,,,0.00,315,Wunderground v.1.15,2013-09-22 14:20:00,
2013-09-22 09:25:00,64.0,52.0,29.60,SW,221,17.0,20.0,65,0.00,,,0.00,327,Wunderground v.1.15,2013-09-22 14:25:00,
2013-09-22 09:30:00,64.4,52.0,29.60,SSW,210,16.0,17.0,64,0.00,,,0.00,345,Wunderground v.1.15,2013-09-22 14:30:00,
2013-09-22 09:35:00,64.8,52.8,29.60,South,178,7.0,22.0,65,0.00,,,0.00,360,Wunderground v.1.15,2013-09-22 14:35:00,
2013-09-22 09:40:00,65.1,52.2,29.60,South,186,22.0,24.0,63,0.00,,,0.00,376,Wunderground v.1.15,2013-09-22 14:40:00,
2013-09-22 09:45:00,65.4,52.5,29.60,South,190,18.0,24.0,63,0.00,,,0.00,392,Wunderground v.1.15,2013-09-22 14:45:00,
2013-09-22 09:50:00,65.7,52.3,29.60,South,191,18.0,18.0,62,0.00,,,0.00,406,Wunderground v.1.15,2013-09-22 14:50:00,
2013-09-22 09:55:00,66.1,53.1,29.60,South,183,9.0,23.0,63,0.00,,,0.00,418,Wunderground v.1.15,2013-09-22 14:55:00,
2013-09-22 10:00:00,66.4,52.5,29.60,SW,214,17.0,18.0,61,0.00,,,0.00,434,Wunderground v.1.15,2013-09-22 15:00:00,
2013-09-22 10:05:00,66.9,53.9,29.60,SSW,207,11.0,18.0,63,0.00,,,0.00,448,Wunderground v.1.15,2013-09-22 15:05:00,
2013-09-22 10:10:00,67.2,52.8,29.60,SSW,196,9.0,13.0,60,0.00,,,0.00,462,Wunderground v.1.15,2013-09-22 15:10:00,
2013-09-22 10:15:00,67.5,53.6,29.60,South,182,11.0,22.0,61,0.00,,,0.00,475,Wunderground v.1.15,2013-09-22 15:15:00,
2013-09-22 10:20:00,67.9,53.5,29.60,South,171,20.0,20.0,60,0.00,,,0.00,490,Wunderground v.1.15,2013-09-22 15:20:00,
2013-09-22 10:25:00,68.4,54.0,29.60,SSW,204,15.0,22.0,60,0.00,,,0.00,503,Wunderground v.1.15,2013-09-22 15:25:00,
2013-09-22 10:30:00,68.6,54.2,29.59,South,174,18.0,18.0,60,0.00,,,0.00,517,Wunderground v.1.15,2013-09-22 15:30:00,
2013-09-22 10:35:00,68.8,53.9,29.59,South,186,17.0,27.0,59,0.00,,,0.00,529,Wunderground v.1.15,2013-09-22 15:35:00,
2013-09-22 10:40:00,69.2,54.3,29.59,South,184,18.0,27.0,59,0.00,,,0.00,543,Wunderground v.1.15,2013-09-22 15:40:00,
2013-09-22 10:45:00,69.5,54.5,29.60,South,184,11.0,34.0,59,0.00,,,0.00,555,Wunderground v.1.15,2013-09-22 15:45:00,
2013-09-22 10:50:00,70.1,54.6,29.60,SSW,193,21.0,34.0,58,0.00,,,0.00,570,Wunderground v.1.15,2013-09-22 15:50:00,
2013-09-22 10:55:00,70.6,54.6,29.60,South,191,13.0,23.0,57,0.00,,,0.00,578,Wunderground v.1.15,2013-09-22 15:55:00,
2013-09-22 11:00:00,70.8,54.3,29.59,South,187,14.0,32.0,56,0.00,,,0.00,592,Wunderground v.1.15,2013-09-22 16:00:00,
2013-09-22 11:05:00,71.0,55.0,29.59,South,173,20.0,28.0,57,0.00,,,0.00,603,Wunderground v.1.15,2013-09-22 16:05:00,
2013-09-22 11:10:00,71.6,54.6,29.59,South,190,13.0,28.0,55,0.00,,,0.00,613,Wunderground v.1.15,2013-09-22 16:10:00,
2013-09-22 11:15:00,71.8,54.3,29.59,SSW,195,14.0,23.0,54,0.00,,,0.00,624,Wunderground v.1.15,2013-09-22 16:15:00,
2013-09-22 11:20:00,71.8,54.3,29.59,SSE,167,22.0,25.0,54,0.00,,,0.00,635,Wunderground v.1.15,2013-09-22 16:20:00,
2013-09-22 11:25:00,71.9,54.9,29.59,South,187,18.0,27.0,55,0.00,,,0.00,643,Wunderground v.1.15,2013-09-22 16:25:00,
2013-09-22 11:30:00,72.2,54.6,29.59,SSW,211,17.0,33.0,54,0.00,,,0.00,654,Wunderground v.1.15,2013-09-22 16:30:00,
2013-09-22 11:35:00,72.4,54.3,29.59,South,191,18.0,27.0,53,0.00,,,0.00,664,Wunderground v.1.15,2013-09-22 16:35:00,
2013-09-22 11:40:00,72.7,55.6,29.59,SSE,167,12.0,27.0,55,0.00,,,0.00,671,Wunderground v.1.15,2013-09-22 16:40:00,
2013-09-22 11:45:00,73.1,54.4,29.59,South,170,18.0,28.0,52,0.00,,,0.00,680,Wunderground v.1.15,2013-09-22 16:45:00,
2013-09-22 11:50:00,73.1,54.9,29.59,SSW,205,14.0,28.0,53,0.00,,,0.00,687,Wunderground v.1.15,2013-09-22 16:50:00,
2013-09-22 15:07:00,78.3,57.0,29.51,SSW,211,27.0,27.0,48,0.00,,,0.00,691,Wunderground v.1.15,2013-09-22 20:07:00,
2013-09-22 15:12:00,78.5,57.7,29.51,South,175,21.0,26.0,49,0.00,,,0.00,684,Wunderground v.1.15,2013-09-22 20:12:00,
2013-09-22 15:17:00,78.7,58.5,29.51,SSE,150,21.0,33.0,50,0.00,,,0.00,677,Wunderground v.1.15,2013-09-22 20:17:00,
2013-09-22 15:22:00,78.6,57.8,29.51,South,178,22.0,31.0,49,0.00,,,0.00,666,Wunderground v.1.15,2013-09-22 20:22:00,
2013-09-22 15:27:00,78.6,57.8,29.51,SSE,166,19.0,31.0,49,0.00,,,0.00,659,Wunderground v.1.15,2013-09-22 20:27:00,
2013-09-22 15:32:00,78.6,57.3,29.51,South,170,31.0,37.0,48,0.00,,,0.00,654,Wunderground v.1.15,2013-09-22 20:32:00,
2013-09-22 15:37:00,78.7,57.4,29.50,South,171,18.0,37.0,48,0.00,,,0.00,640,Wunderground v.1.15,2013-09-22 20:37:00,
2013-09-22 15:42:00,78.8,56.9,29.50,South,172,23.0,29.0,47,0.00,,,0.00,633,Wunderground v.1.15,2013-09-22 20:42:00,
2013-09-22 15:47:00,78.8,56.9,29.50,South,172,25.0,34.0,47,0.00,,,0.00,622,Wunderground v.1.15,2013-09-22 20:47:00,
2013-09-22 15:52:00,78.9,56.4,29.50,SE,140,24.0,33.0,46,0.00,,,0.00,610,Wunderground v.1.15,2013-09-22 20:52:00,
2013-09-22 15:57:00,79.0,57.0,29.50,South,170,19.0,33.0,47,0.00,,,0.00,599,Wunderground v.1.15,2013-09-22 20:57:00,
2013-09-22 16:02:00,79.1,57.1,29.50,SSE,159,20.0,24.0,47,0.00,,,0.00,591,Wunderground v.1.15,2013-09-22 21:02:00,
2013-09-22 16:07:00,78.9,56.4,29.50,SSE,157,27.0,35.0,46,0.00,,,0.00,577,Wunderground v.1.15,2013-09-22 21:07:00,
2013-09-22 16:12:00,78.9,56.4,29.49,South,178,27.0,38.0,46,0.00,,,0.00,563,Wunderground v.1.15,2013-09-22 21:12:00,
2013-09-22 16:17:00,79.2,56.6,29.49,South,170,17.0,38.0,46,0.00,,,0.00,555,Wunderground v.1.15,2013-09-22 21:17:00,
2013-09-22 16:22:00,79.1,55.9,29.49,SSE,165,18.0,27.0,45,0.00,,,0.00,540,Wunderground v.1.15,2013-09-22 21:22:00,
2013-09-22 16:27:00,78.8,56.9,29.49,SSE,160,25.0,32.0,47,0.00,,,0.00,527,Wunderground v.1.15,2013-09-22 21:27:00,
2013-09-22 16:32:00,78.6,56.1,29.49,South,184,29.0,30.0,46,0.00,,,0.00,513,Wunderground v.1.15,2013-09-22 21:32:00,
2013-09-22 16:37:00,78.6,56.1,29.49,SSE,161,25.0,30.0,46,0.00,,,0.00,499,Wunderground v.1.15,2013-09-22 21:37:00,
2013-09-22 16:42:00,78.7,56.2,29.49,SSE,154,26.0,29.0,46,0.00,,,0.00,487,Wunderground v.1.15,2013-09-22 21:42:00,
2013-09-22 16:47:00,78.6,55.5,29.49,South,175,17.0,36.0,45,0.00,,,0.00,475,Wunderground v.1.15,2013-09-22 21:47:00,
2013-09-22 16:52:00,78.5,56.6,29.49,South,169,22.0,27.0,47,0.00,,,0.00,457,Wunderground v.1.15,2013-09-22 21:52:00,
2013-09-22 16:57:00,78.5,55.4,29.49,South,178,26.0,30.0,45,0.00,,,0.00,443,Wunderground v.1.15,2013-09-22 21:57:00,
2013-09-22 17:02:00,78.6,55.5,29.48,South,186,21.0,26.0,45,0.00,,,0.00,431,Wunderground v.1.15,2013-09-22 22:02:00,
2013-09-22 17:07:00,78.4,55.3,29.48,SSE,158,20.0,29.0,45,0.00,,,0.00,413,Wunderground v.1.15,2013-09-22 22:07:00,
2013-09-22 17:12:00,78.2,55.7,29.49,South,171,22.0,28.0,46,0.00,,,0.00,399,Wunderground v.1.15,2013-09-22 22:12:00,
2013-09-22 17:17:00,78.0,55.5,29.48,SSE,166,20.0,31.0,46,0.00,,,0.00,385,Wunderground v.1.15,2013-09-22 22:17:00,
2013-09-22 17:22:00,77.9,54.8,29.48,South,179,28.0,31.0,45,0.00,,,0.00,367,Wunderground v.1.15,2013-09-22 22:22:00,
2013-09-22 17:27:00,77.9,54.8,29.48,South,185,23.0,31.0,45,0.00,,,0.00,350,Wunderground v.1.15,2013-09-22 22:27:00,
2013-09-22 17:32:00,78.0,54.9,29.49,SSE,161,21.0,27.0,45,0.00,,,0.00,336,Wunderground v.1.15,2013-09-22 22:32:00,
2013-09-22 17:37:00,77.9,54.2,29.48,South,176,20.0,35.0,44,0.00,,,0.00,322,Wunderground v.1.15,2013-09-22 22:37:00,
2013-09-22 17:42:00,77.6,54.6,29.49,South,171,29.0,29.0,45,0.00,,,0.00,304,Wunderground v.1.15,2013-09-22 22:42:00,
2013-09-22 17:47:00,77.7,54.0,29.49,South,171,21.0,33.0,44,0.00,,,0.00,290,Wunderground v.1.15,2013-09-22 22:47:00,
2013-09-22 17:52:00,77.6,54.6,29.49,SSW,198,17.0,32.0,45,0.00,,,0.00,274,Wunderground v.1.15,2013-09-22 22:52:00,
2013-09-22 17:57:00,77.5,54.5,29.49,South,173,18.0,32.0,45,0.00,,,0.00,257,Wunderground v.1.15,2013-09-22 22:57:00,
2013-09-22 18:02:00,77.4,54.4,29.49,SSE,166,19.0,21.0,45,0.00,,,0.00,241,Wunderground v.1.15,2013-09-22 23:02:00,
2013-09-22 18:07:00,77.2,54.2,29.49,SSE,159,21.0,25.0,45,0.00,,,0.00,225,Wunderground v.1.15,2013-09-22 23:07:00,
2013-09-22 18:12:00,77.2,54.8,29.49,SSE,164,18.0,26.0,46,0.00,,,0.00,206,Wunderground v.1.15,2013-09-22 23:12:00,
2013-09-22 18:17:00,77.0,54.0,29.49,South,175,19.0,30.0,45,0.00,,,0.00,185,Wunderground v.1.15,2013-09-22 23:17:00,
2013-09-22 18:22:00,76.6,54.3,29.49,South,181,17.0,22.0,46,0.00,,,0.00,53,Wunderground v.1.15,2013-09-22 23:22:00,
2013-09-22 18:27:00,76.4,54.1,29.49,South,169,22.0,30.0,46,0.00,,,0.00,33,Wunderground v.1.15,2013-09-22 23:27:00,
2013-09-22 18:32:00,76.2,53.9,29.49,SSE,153,14.0,29.0,46,0.00,,,0.00,32,Wunderground v.1.15,2013-09-22 23:32:00,
2013-09-22 18:37:00,75.7,54.0,29.49,South,174,13.0,29.0,47,0.00,,,0.00,30,Wunderground v.1.15,2013-09-22 23:37:00,
2013-09-22 18:42:00,75.6,53.4,29.49,SSE,166,23.0,24.0,46,0.00,,,0.00,26,Wunderground v.1.15,2013-09-22 23:42:00,
2013-09-22 18:47:00,75.3,53.1,29.49,SSE,168,17.0,26.0,46,0.00,,,0.00,21,Wunderground v.1.15,2013-09-22 23:47:00,
2013-09-22 18:52:00,75.1,52.9,29.49,South,174,17.0,23.0,46,0.00,,,0.00,16,Wunderground v.1.15,2013-09-22 23:52:00,
2013-09-22 18:57:00,74.8,53.2,29.49,SSE,164,13.0,23.0,47,0.00,,,0.00,14,Wunderground v.1.15,2013-09-22 23:57:00,
2013-09-22 19:02:00,74.6,53.0,29.49,South,169,13.0,19.0,47,0.00,,,0.00,11,Wunderground v.1.15,2013-09-23 00:02:00,
2013-09-22 19:07:00,74.2,53.2,29.49,South,177,22.0,24.0,48,0.00,,,0.00,9,Wunderground v.1.15,2013-09-23 00:07:00,
2013-09-22 19:12:00,73.9,53.0,29.49,SSE,165,10.0,20.0,48,0.00,,,0.00,7,Wunderground v.1.15,2013-09-23 00:12:00,
2013-09-22 19:17:00,73.5,53.2,29.49,SSE,167,10.0,21.0,49,0.00,,,0.00,5,Wunderground v.1.15,2013-09-23 00:17:00,
2013-09-22 19:23:00,73.0,53.3,29.49,SSE,155,15.0,16.0,50,0.00,,,0.00,0,Wunderground v.1.15,2013-09-23 00:23:00,
2013-09-22 19:28:00,72.5,53.3,29.50,SSE,155,12.0,16.0,51,0.00,,,0.00,0,Wunderground v.1.15,2013-09-23 00:28:00,
2013-09-22 19:33:00,72.2,53.6,29.49,SSE,156,12.0,16.0,52,0.00,,,0.00,0,Wunderground v.1.15,2013-09-23 00:33:00,
2013-09-22 19:38:00,71.7,53.1,29.50,SSE,163,12.0,16.0,52,0.00,,,0.00,0,Wunderground v.1.15,2013-09-23 00:38:00,
2013-09-22 19:43:00,71.6,53.6,29.50,SSE,167,10.0,20.0,53,0.00,,,0.00,0,Wunderground v.1.15,2013-09-23 00:43:00,
2013-09-22 19:48:00,71.2,53.2,29.50,SSE,163,12.0,22.0,53,0.00,,,0.00,0,Wunderground v.1.15,2013-09-23 00:48:00,
2013-09-22 19:53:00,71.3,53.3,29.50,SSE,148,14.0,20.0,53,0.00,,,0.00,0,Wunderground v.1.15,2013-09-23 00:53:00,
2013-09-22 19:58:00,71.3,53.3,29.50,SSE,151,20.0,24.0,53,0.00,,,0.00,0,Wunderground v.1.15,2013-09-23 00:58:00,
2013-09-22 20:03:00,71.0,53.0,29.50,SSE,161,15.0,20.0,53,0.00,,,0.00,0,Wunderground v.1.15,2013-09-23 01:03:00,
2013-09-22 20:08:00,70.7,53.2,29.50,SSE,164,12.0,20.0,54,0.00,,,0.00,0,Wunderground v.1.15,2013-09-23 01:08:00,
2013-09-22 20:13:00,70.5,53.1,29.50,SSE,159,14.0,21.0,54,0.00,,,0.00,0,Wunderground v.1.15,2013-09-23 01:13:00,
2013-09-22 20:18:00,70.5,53.1,29.50,SE,140,13.0,22.0,54,0.00,,,0.00,0,Wunderground v.1.15,2013-09-23 01:18:00,
2013-09-22 20:23:00,70.4,53.0,29.50,South,171,17.0,22.0,54,0.00,,,0.00,0,Wunderground v.1.15,2013-09-23 01:23:00,
2013-09-22 20:28:00,70.4,53.0,29.50,SSE,167,14.0,23.0,54,0.00,,,0.00,0,Wunderground v.1.15,2013-09-23 01:28:00,
2013-09-22 20:33:00,70.1,52.7,29.50,SSE,168,16.0,22.0,54,0.00,,,0.00,0,Wunderground v.1.15,2013-09-23 01:33:00,
2013-09-22 20:38:00,70.1,52.7,29.50,SSE,166,15.0,24.0,54,0.00,,,0.00,0,Wunderground v.1.15,2013-09-23 01:38:00,
2013-09-22 20:43:00,69.9,53.0,29.50,SSE,165,17.0,24.0,55,0.00,,,0.00,0,Wunderground v.1.15,2013-09-23 01:43:00,
2013-09-22 20:48:00,69.8,52.4,29.50,SE,146,15.0,27.0,54,0.00,,,0.00,0,Wunderground v.1.15,2013-09-23 01:48:00,
2013-09-22 20:53:00,69.6,52.7,29.50,SSE,164,18.0,22.0,55,0.00,,,0.00,0,Wunderground v.1.15,2013-09-23 01:53:00,
2013-09-22 20:58:00,69.4,52.5,29.51,South,173,12.0,25.0,55,0.00,,,0.00,0,Wunderground v.1.15,2013-09-23 01:58:00,
2013-09-22 21:03:00,69.0,52.6,29.51,South,178,17.0,23.0,56,0.00,,,0.00,0,Wunderground v.1.15,2013-09-23 02:03:00,
2013-09-22 21:08:00,68.9,52.6,29.51,SSE,163,22.0,23.0,56,0.00,,,0.00,0,Wunderground v.1.15,2013-09-23 02:08:00,
2013-09-22 21:13:00,68.9,53.0,29.51,SSE,155,17.0,22.0,57,0.00,,,0.00,0,Wunderground v.1.15,2013-09-23 02:13:00,
2013-09-22 22:04:00,67.1,51.8,29.51,SSE,152,14.0,14.0,58,0.00,,,0.00,0,Wunderground v.1.15,2013-09-23 03:04:00,
2013-09-22 22:09:00,67.1,51.8,29.51,SE,140,21.0,27.0,58,0.00,,,0.00,0,Wunderground v.1.15,2013-09-23 03:09:00,
2013-09-22 22:14:00,67.1,51.4,29.51,SSE,149,23.0,25.0,57,0.00,,,0.00,0,Wunderground v.1.15,2013-09-23 03:14:00,
2013-09-22 22:19:00,66.4,51.6,29.52,SSE,150,16.0,25.0,59,0.00,,,0.00,0,Wunderground v.1.15,2013-09-23 03:19:00,
2013-09-22 22:24:00,66.1,51.4,29.52,SSE,161,13.0,22.0,59,0.00,,,0.00,0,Wunderground v.1.15,2013-09-23 03:24:00,
2013-09-22 22:29:00,66.1,51.4,29.52,SSE,160,16.0,20.0,59,0.00,,,0.00,0,Wunderground v.1.15,2013-09-23 03:29:00,
2013-09-22 22:34:00,65.9,51.2,29.52,SSE,156,12.0,22.0,59,0.00,,,0.00,0,Wunderground v.1.15,2013-09-23 03:34:00,
2013-09-22 22:39:00,65.8,51.5,29.53,SSE,161,12.0,20.0,60,0.00,,,0.00,0,Wunderground v.1.15,2013-09-23 03:39:00,
2013-09-22 22:44:00,65.7,51.4,29.53,SSE,162,14.0,20.0,60,0.00,,,0.00,0,Wunderground v.1.15,2013-09-23 03:44:00,
2013-09-22 22:49:00,65.5,51.2,29.53,South,171,11.0,13.0,60,0.00,,,0.00,0,Wunderground v.1.15,2013-09-23 03:49:00,
2013-09-22 22:54:00,65.2,51.0,29.53,SSE,153,14.0,22.0,60,0.00,,,0.00,0,Wunderground v.1.15,2013-09-23 03:54:00,
2013-09-22 22:59:00,65.0,51.2,29.53,SSE,168,13.0,15.0,61,0.00,,,0.00,0,Wunderground v.1.15,2013-09-23 03:59:00,
2013-09-22 23:01:00,64.9,51.1,29.53,SSE,166,9.0,17.0,61,0.00,,,0.00,0,Wunderground v.1.15,2013-09-23 04:01:00,
2013-09-22 23:06:00,64.7,51.4,29.53,South,179,12.0,22.0,62,0.00,,,0.00,0,Wunderground v.1.15,2013-09-23 04:06:00,
2013-09-22 23:11:00,64.6,51.3,29.53,South,169,14.0,16.0,62,0.00,,,0.00,0,Wunderground v.1.15,2013-09-23 04:11:00,
2013-09-22 23:16:00,64.6,51.3,29.53,SSE,164,15.0,22.0,62,0.00,,,0.00,0,Wunderground v.1.15,2013-09-23 04:16:00,
2013-09-22 23:21:00,64.6,51.3,29.53,South,173,13.0,22.0,62,0.00,,,0.00,0,Wunderground v.1.15,2013-09-23 04:21:00,
2013-09-22 23:26:00,64.3,51.0,29.53,SSE,163,11.0,22.0,62,0.00,,,0.00,0,Wunderground v.1.15,2013-09-23 04:26:00,
2013-09-22 23:31:00,64.1,50.8,29.53,SSE,157,14.0,19.0,62,0.00,,,0.00,0,Wunderground v.1.15,2013-09-23 04:31:00,
2013-09-22 23:36:00,64.0,51.1,29.53,SSE,160,13.0,22.0,63,0.00,,,0.00,0,Wunderground v.1.15,2013-09-23 04:36:00,
2013-09-22 23:41:00,63.9,51.1,29.53,South,180,13.0,18.0,63,0.00,,,0.00,0,Wunderground v.1.15,2013-09-23 04:41:00,
2013-09-22 23:46:00,63.9,51.1,29.53,SSE,155,12.0,21.0,63,0.00,,,0.00,0,Wunderground v.1.15,2013-09-23 04:46:00,
2013-09-22 23:51:00,63.8,51.0,29.53,SSE,153,17.0,21.0,63,0.00,,,0.00,0,Wunderground v.1.15,2013-09-23 04:51:00,
2013-09-22 23:56:00,63.8,50.5,29.53,South,170,15.0,23.0,62,0.00,,,0.00,0,Wunderground v.1.15,2013-09-23 04:56:00,